AVA9237 SKSM-SKBO

Flight info

Callsign AVA9237
Flight time 1h 1m
Altitude 37000
Route SUPLI1A LOKOV UG444 EJA UQ119 ILSEV ILSEV5E
Aircraft A320/M-SDE3FGHIRWY/LB1

Departure

Time 2026-05-05 02:06
Airport Simón Bolívar International Airport (SKSM)

Arrival

Time 2026-05-05 03:07
Airport El Dorado International Airport (SKBO)
Time Latitude Longitude Altitude Speed Heading
2026-05-05 01:52 11.11778 -74.23214 39 ft 0 kts 269°
2026-05-05 01:59 11.11778 -74.23200 39 ft 3 kts 275°
2026-05-05 02:00 11.11774 -74.23178 39 ft 3 kts 301°
2026-05-05 02:00 11.11760 -74.23164 38 ft 3 kts 346°
2026-05-05 02:00 11.11753 -74.23162 38 ft 0 kts 358°
2026-05-05 02:03 11.11751 -74.23147 36 ft 5 kts 113°
2026-05-05 02:03 11.11744 -74.23090 34 ft 10 kts 84°
2026-05-05 02:03 11.11768 -74.23060 34 ft 0 kts 28°
2026-05-05 02:03 11.11772 -74.23069 34 ft 2 kts 263°
2026-05-05 02:04 11.11725 -74.23064 33 ft 14 kts 172°
2026-05-05 02:04 11.11577 -74.23050 33 ft 26 kts 178°
2026-05-05 02:04 11.11395 -74.23049 34 ft 26 kts 180°
2026-05-05 02:04 11.11272 -74.23037 34 ft 0 kts 158°
2026-05-05 02:05 11.11262 -74.23033 34 ft 5 kts 158°
2026-05-05 02:05 11.11229 -74.23036 34 ft 2 kts 254°
2026-05-05 02:05 11.11265 -74.23045 34 ft 17 kts 354°
2026-05-05 02:05 11.11669 -74.23056 33 ft 99 kts 358°
2026-05-05 02:06 11.12588 -74.23075 113 ft 154 kts 359°
2026-05-05 02:06 11.13673 -74.23160 809 ft 161 kts 344°
2026-05-05 02:06 11.14566 -74.23894 1282 ft 183 kts 298°
2026-05-05 02:06 11.14686 -74.25214 1736 ft 199 kts 252°
2026-05-05 02:07 11.13806 -74.26288 2312 ft 204 kts 208°
2026-05-05 02:07 11.12960 -74.26714 2741 ft 206 kts 202°
2026-05-05 02:07 11.11635 -74.27275 3406 ft 207 kts 199°
2026-05-05 02:07 11.10292 -74.27811 4064 ft 208 kts 198°
2026-05-05 02:08 11.08912 -74.28300 4559 ft 218 kts 186°
2026-05-05 02:08 11.07358 -74.28166 4869 ft 237 kts 162°
2026-05-05 02:08 11.05669 -74.27767 5233 ft 262 kts 167°
2026-05-05 02:08 11.03819 -74.27478 5866 ft 274 kts 170°
2026-05-05 02:09 11.01912 -74.27227 6708 ft 278 kts 171°
2026-05-05 02:09 10.99981 -74.26976 7536 ft 281 kts 170°
2026-05-05 02:09 10.98028 -74.26709 8340 ft 285 kts 170°
2026-05-05 02:09 10.96052 -74.26431 9103 ft 289 kts 170°
2026-05-05 02:10 10.94045 -74.26166 9849 ft 293 kts 171°
2026-05-05 02:10 10.91983 -74.25903 10291 ft 309 kts 171°
2026-05-05 02:10 10.89766 -74.25620 10496 ft 332 kts 171°
2026-05-05 02:10 10.87438 -74.25323 10992 ft 342 kts 171°
2026-05-05 02:11 10.85062 -74.25017 11644 ft 346 kts 171°
2026-05-05 02:11 10.82657 -74.24707 12320 ft 350 kts 171°
2026-05-05 02:11 10.80228 -74.24394 12983 ft 354 kts 171°
2026-05-05 02:11 10.77769 -74.24077 13614 ft 358 kts 171°
2026-05-05 02:12 10.75285 -74.23755 14242 ft 362 kts 171°
2026-05-05 02:12 10.70235 -74.23097 15448 ft 369 kts 171°
2026-05-05 02:12 10.67673 -74.22760 16032 ft 373 kts 171°
2026-05-05 02:13 10.65089 -74.22418 16590 ft 377 kts 171°
2026-05-05 02:13 10.62475 -74.22075 17147 ft 380 kts 171°
2026-05-05 02:13 10.59839 -74.21733 17685 ft 384 kts 171°
2026-05-05 02:13 10.57177 -74.21388 18217 ft 387 kts 171°
2026-05-05 02:14 10.54493 -74.21039 18730 ft 391 kts 171°
2026-05-05 02:14 10.51783 -74.20684 19231 ft 394 kts 171°
2026-05-05 02:14 10.49051 -74.20324 19724 ft 398 kts 171°
2026-05-05 02:14 10.46293 -74.19963 20220 ft 401 kts 172°
2026-05-05 02:15 10.43512 -74.19602 20701 ft 405 kts 172°
2026-05-05 02:15 10.40745 -74.19242 21169 ft 408 kts 172°
2026-05-05 02:15 10.37918 -74.18875 21643 ft 411 kts 172°
2026-05-05 02:15 10.35069 -74.18506 22117 ft 415 kts 172°
2026-05-05 02:16 10.32158 -74.18130 22576 ft 418 kts 172°
2026-05-05 02:16 10.29303 -74.17761 23011 ft 421 kts 172°
2026-05-05 02:16 10.26392 -74.17382 23431 ft 423 kts 172°
2026-05-05 02:16 10.23419 -74.16993 23840 ft 427 kts 172°
2026-05-05 02:17 10.20505 -74.16612 24229 ft 429 kts 173°
2026-05-05 02:17 10.17534 -74.16223 24613 ft 432 kts 172°
2026-05-05 02:17 10.14542 -74.15831 24989 ft 435 kts 173°
2026-05-05 02:17 10.11537 -74.15439 25377 ft 437 kts 173°
2026-05-05 02:18 10.08517 -74.15048 25746 ft 439 kts 173°
2026-05-05 02:18 10.05483 -74.14652 26103 ft 441 kts 173°
2026-05-05 02:18 10.02436 -74.14253 26445 ft 443 kts 173°
2026-05-05 02:18 9.99374 -74.13853 26775 ft 445 kts 173°
2026-05-05 02:19 9.96298 -74.13454 27097 ft 446 kts 173°
2026-05-05 02:19 9.93214 -74.13058 27407 ft 448 kts 173°
2026-05-05 02:19 9.90114 -74.12660 27710 ft 450 kts 173°
2026-05-05 02:19 9.87003 -74.12256 28004 ft 452 kts 173°
2026-05-05 02:20 9.83879 -74.11848 28303 ft 454 kts 173°
2026-05-05 02:20 9.80742 -74.11440 28589 ft 455 kts 173°
2026-05-05 02:20 9.77593 -74.11031 28870 ft 457 kts 173°
2026-05-05 02:20 9.74435 -74.10625 29139 ft 459 kts 173°
2026-05-05 02:21 9.71263 -74.10217 29402 ft 460 kts 173°
2026-05-05 02:21 9.68078 -74.09805 29660 ft 462 kts 173°
2026-05-05 02:21 9.64885 -74.09388 29910 ft 463 kts 173°
2026-05-05 02:21 9.61682 -74.08970 30155 ft 465 kts 173°
2026-05-05 02:22 9.58465 -74.08550 30394 ft 467 kts 173°
2026-05-05 02:22 9.55237 -74.08130 30616 ft 468 kts 173°
2026-05-05 02:22 9.52003 -74.07713 30832 ft 470 kts 173°
2026-05-05 02:22 9.48756 -74.07294 31037 ft 471 kts 173°
2026-05-05 02:23 9.45501 -74.06871 31236 ft 472 kts 173°
2026-05-05 02:23 9.42244 -74.06449 31490 ft 472 kts 173°
2026-05-05 02:23 9.38989 -74.06027 31771 ft 471 kts 173°
2026-05-05 02:23 9.35741 -74.05607 32059 ft 470 kts 173°
2026-05-05 02:24 9.32499 -74.05187 32338 ft 470 kts 173°
2026-05-05 02:24 9.29258 -74.04769 32628 ft 469 kts 173°
2026-05-05 02:24 9.26022 -74.04354 32922 ft 468 kts 173°
2026-05-05 02:24 9.22788 -74.03940 33207 ft 468 kts 173°
2026-05-05 02:25 9.19566 -74.03525 33494 ft 467 kts 173°
2026-05-05 02:25 9.16346 -74.03107 33784 ft 466 kts 173°
2026-05-05 02:25 9.13130 -74.02687 34081 ft 466 kts 173°
2026-05-05 02:25 9.09919 -74.02270 34378 ft 465 kts 173°
2026-05-05 02:26 9.06715 -74.01854 34660 ft 464 kts 173°
2026-05-05 02:26 9.03520 -74.01441 34934 ft 463 kts 173°
2026-05-05 02:26 9.00328 -74.01029 35202 ft 462 kts 173°
2026-05-05 02:26 8.97146 -74.00619 35456 ft 461 kts 173°
2026-05-05 02:27 8.93966 -74.00207 35702 ft 460 kts 173°
2026-05-05 02:27 8.90796 -73.99795 35952 ft 459 kts 173°
2026-05-05 02:27 8.87630 -73.99385 36167 ft 459 kts 173°
2026-05-05 02:27 8.84462 -73.98978 36366 ft 459 kts 173°
2026-05-05 02:28 8.81298 -73.98574 36555 ft 458 kts 173°
2026-05-05 02:28 8.78135 -73.98169 36757 ft 458 kts 173°
2026-05-05 02:28 8.74978 -73.97762 36899 ft 456 kts 173°
2026-05-05 02:29 8.68730 -73.96954 36934 ft 449 kts 173°
2026-05-05 02:29 8.62541 -73.96155 36943 ft 448 kts 173°
2026-05-05 02:30 8.56360 -73.95363 36964 ft 448 kts 173°
2026-05-05 02:30 8.50179 -73.94562 36951 ft 448 kts 173°
2026-05-05 02:31 8.43995 -73.93763 36953 ft 448 kts 173°
2026-05-05 02:31 8.37810 -73.92968 36953 ft 448 kts 173°
2026-05-05 02:32 8.31624 -73.92172 36955 ft 448 kts 173°
2026-05-05 02:32 8.25437 -73.91375 36956 ft 448 kts 173°
2026-05-05 02:33 8.19251 -73.90580 36957 ft 448 kts 173°
2026-05-05 02:33 8.13060 -73.89785 36956 ft 449 kts 173°
2026-05-05 02:34 8.06865 -73.88985 36958 ft 449 kts 173°
2026-05-05 02:34 8.00664 -73.88270 36959 ft 448 kts 175°
2026-05-05 02:35 7.94441 -73.87802 36958 ft 448 kts 176°
2026-05-05 02:35 7.88212 -73.87388 36958 ft 449 kts 176°
2026-05-05 02:36 7.81981 -73.86910 36961 ft 449 kts 175°
2026-05-05 02:36 7.75752 -73.86391 36964 ft 449 kts 175°
2026-05-05 02:37 7.69522 -73.85876 36964 ft 449 kts 175°
2026-05-05 02:37 7.63332 -73.85380 36958 ft 449 kts 176°
2026-05-05 02:38 7.57105 -73.84890 36954 ft 449 kts 176°
2026-05-05 02:38 7.50876 -73.84397 36948 ft 449 kts 175°
2026-05-05 02:39 7.44642 -73.83894 36945 ft 450 kts 175°
2026-05-05 02:39 7.38409 -73.83397 36941 ft 449 kts 176°
2026-05-05 02:40 7.32177 -73.82905 36932 ft 449 kts 175°
2026-05-05 02:40 7.25948 -73.82406 36928 ft 449 kts 175°
2026-05-05 02:41 7.19723 -73.81900 36925 ft 449 kts 175°
2026-05-05 02:41 7.13500 -73.81402 36905 ft 449 kts 175°
2026-05-05 02:42 7.07278 -73.80911 36910 ft 449 kts 175°
2026-05-05 02:42 7.01054 -73.80911 36910 ft 448 kts 189°
2026-05-05 02:43 6.94922 -73.82044 36912 ft 448 kts 191°
2026-05-05 02:43 6.88794 -73.83189 36912 ft 448 kts 191°
2026-05-05 02:44 6.82668 -73.84337 36910 ft 448 kts 191°
2026-05-05 02:44 6.76538 -73.85485 36906 ft 448 kts 191°
2026-05-05 02:45 6.70411 -73.86632 36914 ft 448 kts 191°
2026-05-05 02:45 6.64284 -73.87781 36904 ft 448 kts 191°
2026-05-05 02:46 6.58190 -73.88923 36925 ft 449 kts 190°
2026-05-05 02:46 6.52052 -73.90066 36935 ft 449 kts 191°
2026-05-05 02:47 6.45915 -73.91209 36941 ft 448 kts 191°
2026-05-05 02:47 6.39782 -73.92362 36950 ft 448 kts 191°
2026-05-05 02:48 6.33646 -73.93517 36948 ft 449 kts 191°
2026-05-05 02:48 6.27506 -73.94666 36939 ft 449 kts 191°
2026-05-05 02:49 6.21371 -73.95808 36934 ft 448 kts 191°
2026-05-05 02:49 6.15240 -73.96947 36871 ft 449 kts 191°
2026-05-05 02:49 6.12142 -73.97521 35873 ft 458 kts 190°
2026-05-05 02:50 6.08984 -73.98109 34810 ft 464 kts 191°
2026-05-05 02:50 6.05804 -73.98704 33979 ft 465 kts 190°
2026-05-05 02:50 6.02622 -73.99301 33325 ft 463 kts 190°
2026-05-05 02:50 5.99474 -73.99893 32715 ft 459 kts 190°
2026-05-05 02:51 5.96346 -74.00484 32111 ft 455 kts 189°
2026-05-05 02:51 5.93244 -74.01075 31500 ft 451 kts 190°
2026-05-05 02:51 5.90176 -74.01663 30904 ft 447 kts 190°
2026-05-05 02:51 5.87130 -74.02246 30327 ft 443 kts 190°
2026-05-05 02:52 5.84117 -74.02819 29797 ft 438 kts 190°
2026-05-05 02:52 5.82142 -74.03194 29467 ft 435 kts 190°
2026-05-05 02:52 5.79186 -74.03756 28958 ft 430 kts 190°
2026-05-05 02:52 5.76258 -74.04311 28410 ft 427 kts 190°
2026-05-05 02:53 5.73352 -74.04860 27867 ft 424 kts 190°
2026-05-05 02:53 5.70467 -74.05406 27337 ft 420 kts 190°
2026-05-05 02:53 5.67602 -74.05948 26820 ft 417 kts 189°
2026-05-05 02:53 5.64763 -74.06484 26310 ft 414 kts 189°
2026-05-05 02:54 5.61947 -74.07017 25824 ft 410 kts 189°
2026-05-05 02:54 5.59153 -74.07547 25285 ft 408 kts 189°
2026-05-05 02:54 5.56377 -74.08076 24788 ft 404 kts 189°
2026-05-05 02:54 5.53628 -74.08598 24318 ft 400 kts 189°
2026-05-05 02:55 5.50905 -74.09116 23866 ft 396 kts 189°
2026-05-05 02:55 5.48210 -74.09628 23435 ft 392 kts 189°
2026-05-05 02:55 5.45552 -74.10155 23011 ft 388 kts 193°
2026-05-05 02:55 5.43015 -74.11064 22527 ft 387 kts 205°
2026-05-05 02:56 5.40719 -74.12473 22068 ft 389 kts 217°
2026-05-05 02:56 5.38735 -74.14334 21613 ft 391 kts 228°
2026-05-05 02:56 5.36823 -74.16282 21348 ft 401 kts 215°
2026-05-05 02:56 5.34409 -74.17770 20763 ft 412 kts 208°
2026-05-05 02:57 5.31863 -74.19144 19969 ft 417 kts 206°
2026-05-05 02:57 5.29290 -74.20470 19361 ft 415 kts 205°
2026-05-05 02:57 5.26731 -74.21792 18783 ft 413 kts 206°
2026-05-05 02:57 5.24200 -74.23135 18240 ft 409 kts 206°
2026-05-05 02:58 5.21714 -74.24498 17701 ft 406 kts 207°
2026-05-05 02:58 5.19293 -74.25857 17173 ft 403 kts 207°
2026-05-05 02:58 5.16863 -74.27234 16653 ft 399 kts 208°
2026-05-05 02:58 5.14460 -74.28595 16140 ft 395 kts 208°
2026-05-05 02:59 5.12078 -74.29939 15616 ft 391 kts 208°
2026-05-05 02:59 5.09713 -74.31268 15100 ft 388 kts 208°
2026-05-05 02:59 5.07368 -74.32580 14579 ft 384 kts 207°
2026-05-05 02:59 5.05045 -74.33879 14049 ft 381 kts 208°
2026-05-05 03:00 5.02714 -74.35119 13533 ft 377 kts 201°
2026-05-05 03:00 5.00209 -74.35776 13046 ft 370 kts 186°
2026-05-05 03:00 4.97697 -74.36079 12862 ft 357 kts 185°
2026-05-05 03:00 4.95297 -74.36368 12883 ft 338 kts 185°
2026-05-05 03:01 4.93038 -74.36638 12887 ft 314 kts 185°
2026-05-05 03:01 4.90961 -74.36884 12896 ft 288 kts 185°
2026-05-05 03:01 4.89055 -74.36845 12906 ft 264 kts 164°
2026-05-05 03:01 4.87448 -74.36140 12906 ft 245 kts 142°
2026-05-05 03:02 4.86272 -74.34961 12902 ft 237 kts 125°
2026-05-05 03:02 4.85274 -74.33639 12765 ft 238 kts 125°
2026-05-05 03:02 4.84287 -74.32329 12502 ft 234 kts 126°
2026-05-05 03:02 4.83308 -74.31032 12203 ft 233 kts 126°
2026-05-05 03:03 4.82330 -74.29739 11893 ft 232 kts 126°
2026-05-05 03:03 4.81365 -74.28461 11611 ft 227 kts 126°
2026-05-05 03:03 4.80426 -74.27220 11286 ft 220 kts 126°
2026-05-05 03:03 4.79512 -74.26014 10993 ft 213 kts 126°
2026-05-05 03:04 4.78630 -74.24848 10713 ft 205 kts 126°
2026-05-05 03:04 4.77803 -74.23754 10454 ft 190 kts 126°
2026-05-05 03:04 4.77037 -74.22742 10235 ft 174 kts 126°
2026-05-05 03:04 4.76328 -74.21804 9998 ft 165 kts 126°
2026-05-05 03:05 4.75644 -74.20899 9777 ft 161 kts 126°
2026-05-05 03:05 4.74969 -74.20006 9565 ft 160 kts 126°
2026-05-05 03:05 4.74298 -74.19120 9350 ft 159 kts 126°
2026-05-05 03:05 4.73630 -74.18238 9153 ft 158 kts 126°
2026-05-05 03:06 4.72959 -74.17363 8921 ft 158 kts 126°
2026-05-05 03:06 4.72300 -74.16482 8699 ft 158 kts 126°
2026-05-05 03:06 4.71646 -74.15608 8499 ft 156 kts 127°
2026-05-05 03:06 4.70990 -74.14753 8373 ft 145 kts 128°
2026-05-05 03:07 4.70483 -74.14078 8370 ft 96 kts 127°
2026-05-05 03:07 4.70227 -74.13750 8369 ft 33 kts 136°
2026-05-05 03:07 4.70075 -74.13650 8371 ft 13 kts 158°
2026-05-05 03:07 4.70051 -74.13641 8372 ft 2 kts 156°
2026-05-05 03:08 4.69997 -74.13620 8372 ft 10 kts 159°
2026-05-05 03:08 4.69959 -74.13606 8372 ft 0 kts 159°
2026-05-05 03:08 4.69949 -74.13602 8372 ft 8 kts 162°
2026-05-05 03:08 4.69914 -74.13664 8373 ft 16 kts 307°
2026-05-05 03:09 4.69989 -74.13755 8373 ft 18 kts 310°
2026-05-05 03:09 4.70084 -74.13879 8372 ft 24 kts 307°
2026-05-05 03:09 4.70188 -74.14017 8373 ft 25 kts 307°
2026-05-05 03:09 4.70297 -74.14159 8372 ft 26 kts 307°
2026-05-05 03:10 4.70410 -74.14308 8373 ft 27 kts 307°
2026-05-05 03:10 4.70492 -74.14449 8373 ft 17 kts 259°
2026-05-05 03:10 4.70398 -74.14536 8373 ft 22 kts 216°
2026-05-05 03:10 4.70258 -74.14641 8373 ft 26 kts 217°
2026-05-05 03:11 4.70111 -74.14751 8373 ft 27 kts 217°
2026-05-05 03:11 4.70022 -74.14818 8373 ft 0 kts 216°
2026-05-05 03:11 4.70020 -74.14820 8373 ft 2 kts 216°
2026-05-05 03:12 4.69957 -74.14840 8373 ft 14 kts 168°
2026-05-05 03:12 4.69891 -74.14768 8373 ft 15 kts 125°
2026-05-05 03:12 4.69832 -74.14686 8373 ft 13 kts 127°
2026-05-05 03:12 4.69816 -74.14660 8373 ft 1 kts 121°
2026-05-05 03:13 4.69780 -74.14673 8373 ft 6 kts 214°
2026-05-05 03:13 4.69767 -74.14684 8373 ft 0 kts 218°
2026-05-05 03:13 4.69765 -74.14685 8371 ft 1 kts 218°
2026-05-05 03:13 4.69765 -74.14686 8373 ft 0 kts 218°